www.pogodaiklimat.ru

Погода и климат >> Архив погоды >> Россия >> Калмыкия >> Малые Дербеты


ПОГОДА в Малых Дербетах

  • Прогноз погоды в Малых Дербетах
  • Монитор погоды в Малых Дербетах
  • Климат города

АРХИВ ПОГОДЫ в Малых Дербетах

Время (UTC), дата Ветер
(напр.,м/с)
 
Видим.   Явления Облачность Т
(С)
Тd
(С)
f
(%)
Тe
(С)
Тes
(С)
Комфортность P
(гПа)
Po
(гПа)
Тmin
(С)
Tmax
(С)
R
(мм)
R24
(мм)
S
(см)
09 18.04 ЮВ 4 20 км 10/0
[Ac As Ci fib]
+18.8 +9.7 55 +19 +24 1013.3 1012.2
12 18.04 ЮВ 5 20 км 10/3 600 м
[Cu med, cong Ac lent Ci fib]
+22.3 +9.1 43 +24 +25 комфорт 1011.7 1010.6
15 18.04 ЮВ 5 20 км 10/3 600 м
[Cu med, cong Ac lent Ci fib]
+22.3 +9.1 43 +24 +24 комфорт 1011.7 1010.6
18 18.04 В 4 20 км ясно +15.3 +9.5 68 +14 +14 1010.6 1009.5
21 18.04 В 2 20 км ясно +11.0 +8.4 84 +10 +10 1010.0 1008.9
00 19.04 СВ 1 20 км 3/0
[Ci fib]
+8.6 +7.2 91 +8 +8 1009.7 1008.6
03 19.04 Ю 2 4000 м дымка 10/10 420 м
[St]
+10.5 +9.7 95 +9 +9 1009.3 1008.2 +8.6
06 19.04 Ю 3 20 км 10/10 450 м
[St]
+10.6 +8.5 87 +9 +9 1010.6 1009.5
09 19.04 З 7-12
{14}
20 км пыльный позёмок 9/9 570 м
[Sc]
+14.3 +5.0 54 +12 +13 1010.9 1009.8
12 19.04 З 5
{14}
20 км в посл. час ливневой дождь 9/4 600 м
[Cb cap Ac As]
+10.2 +6.3 77 +7 +8 1012.6 1011.5
15 19.04 Ю 1 20 км 9/3 600 м
[Cb cap Ac As]
+12.2 +5.9 65 +12 +13 1013.6 1012.5 +15.8 0.7
18 19.04 ЮЗ 5
{14}
20 км ясно +7.1 +0.6 63 +3 +3 1014.3 1013.2
21 19.04 ЮЗ 3 20 км 9/0
[Ac As]
+6.4 +2.1 74 +3 +3 1014.9 1013.8
00 20.04 ЮЗ 4 20 км 9/0
[Ac As]
+6.3 +3.4 82 +3 +3 1015.3 1014.2
03 20.04 З 7-13
{14}
20 км 9/0
[Ac As]
+3.3 0.0 79 -3 -3 1017.1 1016.0 +3.3
06 20.04 З 5
{13}
20 км пыльный позёмок 8/8 500 м
[Sc]
+4.5 -1.4 65 0 +1 1019.2 1018.1 +3.1
09 20.04 З 5 20 км пыльный позёмок 3/3 600 м
[Cu med, cong]
+6.9 -1.5 55 +3 +9 1020.4 1019.3
12 20.04 З 3 20 км ясно +10.5 -1.6 43 +9 +16 1020.2 1019.1
15 20.04 СЗ 4 20 км ясно +10.1 -2.8 40 +8 +8 1020.4 1019.3 +11.3
18 20.04 С 2 20 км 3/0
[Ci fib]
+3.5 -1.9 68 +1 +1 1021.7 1020.6
21 20.04 С 2 20 км ясно +0.4 -3.5 75 -3 -3 1022.6 1021.4
00 21.04 СЗ 2 20 км ясно -1.9 -4.5 82 -6 -6 1021.6 1020.4
03 21.04 С 2 20 км 10/0
[Ci fib]
-1.9 -4.9 80 -6 -5 1021.6 1020.4 -3.2
06 21.04 СВ 5 20 км пыльный позёмок 9/0
[Ac As]
+5.4 -3.3 53 +1 +3 1020.3 1019.1
09 21.04 В 3
{11}
20 км 10/0
[As trans]
+8.3 -1.8 49 +6 +11 1020.0 1018.9
12 21.04 В 4 20 км 9/4 600 м
[Sc Ac As]
+9.6 -0.9 48 +7 +9 1016.8 1015.7
15 21.04 В 3 10 км слабый дождь 10/0 540 м
[As op]
+9.5 +1.0 55 +8 +8 1013.6 1012.5 +10.1
18 21.04 СВ 1 4000 м слабый дождь 10/0 480 м
[As op]
+7.3 +2.9 74 +7 +7 1013.5 1012.3
21 21.04 В 1 4000 м слабый дождь 10/0 480 м
[As op]
+6.6 +5.5 93 +5 +5 1010.7 1009.6
00 22.04 ЮЗ 4
{12}
4000 м слабый дождь 10/0 450 м
[As op]
+4.3 +3.3 93 -0 -0 1011.2 1010.1
03 22.04 Ю 2
{10}
20 км {дождь} 10/10 500 м
[Sc]
+4.1 +3.2 94 +1 +1 1009.9 1008.8 +3.6 17
06 22.04 ЮЗ 6-12
{13}
20 км {дождь} 10/4 600 м
[Cu med, cong Ac und]
+7.8 +2.9 71 +4 +4 1007.9 1006.8
09 22.04 -16
{18}
10 км слабый ливневой дождь н/о +9.2 +3.4 67 +5 +6 1006.5 1005.4
12 22.04 З 8-17
{17}
20 км {ливн. осадки} 8/8 600 м
[Cb cap]
+9.8 +3.1 63 +6 +6 1008.1 1007.0
15 22.04 ЮЗ 6-10
{18}
20 км 8/8 600 м
[Sc diur, vesp]
+9.4 +2.3 61 +6 +6 1011.1 1010.0 +11.1
18 22.04 Ю 2
{13}
20 км ясно +5.7 +2.4 79 +3 +3 1013.7 1012.6
21 22.04 ЮЗ 4 20 км ясно +6.3 +1.7 72 +3 +3 1013.9 1012.8
00 23.04 ЮЗ 3 20 км ясно +5.2 +0.9 74 +2 +2 1013.8 1012.7
03 23.04 ЮЗ 2 20 км 10/0
[Cc]
+5.1 +2.0 80 +3 +3 1014.2 1013.1 +4.3
06 23.04 ЮЗ 2 20 км 10/0
[As trans]
+8.3 +3.7 73 +7 +10 1014.1 1013.0
09 23.04 ЮВ 3 20 км 9/0
[Ac As]
+10.9 +4.3 64 +9 +14 1013.0 1011.9
12 23.04 В 3 4000 м слабый дождь 10/0 500 м
[As op]
+7.6 +4.9 83 +5 +6 1009.3 1008.2
15 23.04 С 4 20 км {дождь} 9/0
[Ac As]
+8.2 +4.9 80 +5 +5 1005.1 1004.0 +11.3 2
18 23.04 С 3
{10}
20 км {дождь} 9/0
[Ac As]
+8.3 +4.8 79 +6 +6 1005.2 1004.1
21 23.04 С 2 4000 м слабый дождь 10/0 480 м
[As op]
+7.1 +5.4 89 +5 +5 1002.0 1000.9
00 24.04 ЮВ 3 20 км {дождь} 8/0
[Ac As]
+6.6 +5.5 93 +3 +3 1000.3 999.2
03 24.04 Ю 6-12
{15}
20 км 9/9 570 м
[Sc]
+5.5 +2.6 82 +1 +1 999.0 997.9 +5.5 3
06 24.04 ЮЗ 6 20 км 10/10 570 м
[Sc]
+8.3 +5.6 83 +4 +4 999.6 998.5 +4.8
09 24.04 З 8 20 км 10/10 570 м
[Cb cap]
+8.4 +3.7 72 +4 +4 1005.9 1004.8
12 24.04 З 7-15
{17}
20 км 4/4 600 м
[Cu med, cong]
+12.0 +3.6 56 +9 +11 1008.9 1007.8
15 24.04 ЮЗ 3
{15}
20 км 10/3 600 м
[Cu med, cong Ci fib]
+12.7 +4.2 56 +12 +12 1010.9 1009.8 +13.5
18 24.04 Ю 2 20 км 10/0
[Ac trans]
+9.3 +5.3 76 +8 +8 1012.7 1011.6
21 24.04 Ю 4
{12}
20 км 10/0
[Ac und]
+7.0 +1.7 69 +4 +4 1014.0 1012.9
00 25.04 ЮЗ 5-10
{14}
20 км 9/9 570 м
[Sc]
+4.9 +1.6 79 0 0 1013.4 1012.3
03 25.04 ЮЗ 6-11
{13}
10 км слабый ливневой дождь 9/9 570 м
[Cb cap]
+5.4 +2.0 79 +1 +1 1014.5 1013.4 +4.5

 

Местоположение метеостанции Малые Дербеты (Калмыкия, Россия): широта 47.93 долгота 44.70 высота над уровнем моря 9 м.

В архиве по умолчанию представлена погода в Малых Дербетах за последнюю неделю. Архивные данные за месяц целиком и за предыдущие месяцы, начиная с января 2011 года, Вы можете получить, выбрав интересующий диапазон дат из раскрывающегося списка и нажав кнопку "Ввод!".

Внимание! Время в таблицах - всемирное. Для получения местного времени необходимо прибавить поправку, которая в Малых Дербетах равна 3 ч.

Смотрите также архив погоды в соседних городах и на ближайших метеорологических станциях:

Погода в Кетченерах (Калмыкия, Россия) (69 км)
Погода в Волгограде город (Волгоградская область, Россия) (84 км)
Погода в Волгограде (Волгоградская область, Россия) (98 км)
Погода в Черный Яр (Астраханская область, Россия) (107 км)
Погода в Котельниково (Волгоградская область, Россия) (121 км)
Погода в Калаче-на-Дону (Волгоградская область, Россия) (123 км)
Погода в Нижнем Чире (Волгоградская область, Россия) (125 км)
Погода в Юсте (Калмыкия, Россия) (151 км)
Погода в Верхнем Баскунчаке (Астраханская область, Россия) (154 км)
Погода в Иловле (Волгоградская область, Россия) (161 км)

Пояснения к столбцам:

Ветер - указаны скорость ветра в м/с - средняя за 10 мин, порывы в срок и между сроками (в фигурных скобках) и направление, откуда дует ветер: С - северный, СВ - северо-восточный, В - восточный, ЮВ - юго-восточный, Ю - южный, ЮЗ - юго-западный, З - западный, СЗ - северо-западный.
Видимость - горизонтальная дальность видимости в метрах или километрах. При видимости от 1 до 10 км при отсутствии осадков обычно наблюдается дымка, при ухудшении видимости до 1 км и менее - туман. В сухую погоду видимость может ухудшаться дымом, пылью или мглою.
Явления - указаны атмосферные явления, наблюдавшиеся в срок или в последний час перед сроком; фигурными скобками обозначены явления, наблюдавшиеся между сроками (за 1-3 часа до срока); квадратными скобками обозначены град или гололедные отложения с указанием их диаметра в мм.
Облачность - указаны через наклонную черту общая и нижняя облачность в баллах и высота нижней границы облаков в метрах; квадратными скобками обозначены формы облаков: Ci - перистые, Cs - перисто-слоистые, Cc - перисто-кучевые, Ac - высококучевые, As - высокослоистые, Sc - слоисто-кучевые, Ns - слоисто-дождевые, Cu - кучевые, Cb - кучево-дождевые. Подробнее классификацию облаков см. в Атласе облаков (PDF).
T - Температура воздуха - температура, измеренная на высоте 2 м над землей.
Td - Температура точки росы - температура, при понижении до которой содержащийся в воздухе водяной пар достигнет насыщения.
f - Относительная влажность воздуха - влажноcть воздуха, измеренная на высоте 2 м над землей.
Te - Эффективная температура - температура, которую ощущает одетый по сезону человек в тени. Характеристика душности погоды. При расчете учитывается влияние влажности воздуха и скорости ветра на теплоощущения человека.
Tes - Эффективная температура на солнце - температура, которую ощущает человек, с поправкой на солнечный нагрев. Характеристика знойности погоды. Зависит от высоты солнца над горизонтом, облачности и скорости ветра. Ночью, в пасмурную погоду, а также при ветре 12 м/с и более поправка равна нулю.
P - Атмосферное давление - приведенное к уровню моря атмосферное давление.
Po - Атмосферное давление - измеренное на уровне метеостанции атмосферное давление.
Tmin - Минимальная температура - минимум температуры воздуха на высоте 2 м над землей.
Tmax - Максимальная температура - максимум температуры воздуха на высоте 2 м над землей.
R - Количество осадков - Количество выпавших осадков за период времени, мм. При наведении курсора мыши на число - период времени, за который выпало указанное количество осадков.
R24 - Количество осадков - Количество выпавших осадков за 24 часа, мм.
S - Снежный покров - Высота снежного покрова, см. При наведении курсора мыши на число - состояние снежного покрова и степень покрытия местности в баллах.